WAT672 KLAX-YSSY

Flight info

Callsign WAT672
Flight time N/A
Altitude 28000
Route SUMMR2 DINTY DCT 3227N12532W 3030N12957W/N0503F300 2814N13332W 2629N13610W 2327N14016W 2215N14148W 1917N14526W 1616N14846W/N0510F320 1439N15046W 1215N15358W 0854N15840W 0750N16001W 0423N16445W 0355N16526W 0121N16911W 0009N17058W/N0503F340 0238S17445W 0500S17750W 0551S17857W 0838S17732E 1033S17519E 1347S17127E 1736S16701E/N0495F360 2130S16306E 2137S16300E 2558S15904E 2744S15740E DCT IFFEY DCT RIKNI N774 MARLN
Aircraft B77W/H-SDE1E2E3FGHIJ2J3J4J5M1RWXY/LB1D1

Departure

Time 2026-05-06 23:08
Airport Los Angeles International Airport (KLAX)

Arrival

Time N/A
Airport Sydney Kingsford Smith International Airport (YSSY)
Time Latitude Longitude Altitude Speed Heading
2026-05-06 21:35 33.94155 -118.40942 130 ft 0 kts 263°
2026-05-06 22:49 33.94155 -118.40941 129 ft 0 kts 263°
2026-05-06 22:49 33.94157 -118.40924 129 ft 2 kts 263°
2026-05-06 22:49 33.94159 -118.40906 129 ft 2 kts 263°
2026-05-06 22:49 33.94161 -118.40888 129 ft 2 kts 263°
2026-05-06 22:50 33.94162 -118.40877 129 ft 2 kts 262°
2026-05-06 22:50 33.94167 -118.40860 129 ft 2 kts 230°
2026-05-06 22:50 33.94178 -118.40849 129 ft 0 kts 203°
2026-05-06 22:50 33.94175 -118.40851 129 ft 2 kts 203°
2026-05-06 22:51 33.94147 -118.40847 130 ft 7 kts 168°
2026-05-06 22:51 33.94115 -118.40841 130 ft 1 kts 173°
2026-05-06 22:51 33.94114 -118.40840 130 ft 0 kts 173°
2026-05-06 22:57 33.94113 -118.40840 130 ft 0 kts 173°
2026-05-06 22:58 33.94105 -118.40839 130 ft 1 kts 173°
2026-05-06 22:58 33.94088 -118.40836 131 ft 3 kts 173°
2026-05-06 22:58 33.94062 -118.40833 131 ft 4 kts 173°
2026-05-06 22:58 33.94029 -118.40828 132 ft 5 kts 173°
2026-05-06 22:59 33.93989 -118.40822 132 ft 6 kts 173°
2026-05-06 22:59 33.93937 -118.40815 132 ft 8 kts 176°
2026-05-06 22:59 33.93885 -118.40842 132 ft 9 kts 240°
2026-05-06 22:59 33.93867 -118.40925 132 ft 11 kts 261°
2026-05-06 23:00 33.93855 -118.41023 132 ft 12 kts 262°
2026-05-06 23:00 33.93853 -118.41134 132 ft 13 kts 300°
2026-05-06 23:00 33.93945 -118.41177 130 ft 16 kts 353°
2026-05-06 23:00 33.94065 -118.41195 128 ft 18 kts 354°
2026-05-06 23:01 33.94197 -118.41213 128 ft 19 kts 353°
2026-05-06 23:01 33.94338 -118.41234 126 ft 21 kts 353°
2026-05-06 23:01 33.94475 -118.41254 126 ft 18 kts 353°
2026-05-06 23:01 33.94588 -118.41270 126 ft 14 kts 353°
2026-05-06 23:02 33.94679 -118.41284 127 ft 11 kts 353°
2026-05-06 23:02 33.94745 -118.41292 128 ft 8 kts
2026-05-06 23:02 33.94794 -118.41254 129 ft 9 kts 64°
2026-05-06 23:02 33.94809 -118.41166 129 ft 12 kts 83°
2026-05-06 23:03 33.94820 -118.41052 129 ft 14 kts 83°
2026-05-06 23:03 33.94833 -118.40920 129 ft 17 kts 83°
2026-05-06 23:03 33.94849 -118.40769 128 ft 19 kts 83°
2026-05-06 23:03 33.94867 -118.40593 126 ft 22 kts 83°
2026-05-06 23:04 33.94887 -118.40399 124 ft 24 kts 83°
2026-05-06 23:04 33.94908 -118.40182 123 ft 26 kts 83°
2026-05-06 23:04 33.94926 -118.40012 120 ft 14 kts 83°
2026-05-06 23:04 33.94941 -118.39954 119 ft 0 kts 57°
2026-05-06 23:05 33.94945 -118.39947 119 ft 3 kts 54°
2026-05-06 23:05 33.94986 -118.39925 118 ft 10 kts
2026-05-06 23:05 33.95037 -118.39980 119 ft 11 kts 271°
2026-05-06 23:05 33.95035 -118.40012 119 ft 0 kts 264°
2026-05-06 23:06 33.95034 -118.40022 119 ft 8 kts 264°
2026-05-06 23:07 33.95009 -118.40283 123 ft 62 kts 263°
2026-05-06 23:07 33.94927 -118.41071 129 ft 126 kts 263°
2026-05-06 23:07 33.94795 -118.42361 124 ft 184 kts 263°
2026-05-06 23:07 33.94631 -118.43955 692 ft 190 kts 263°
2026-05-06 23:08 33.94487 -118.45532 1321 ft 203 kts 263°
2026-05-06 23:08 33.94245 -118.47300 1885 ft 223 kts 258°
2026-05-06 23:08 33.94159 -118.49190 2564 ft 237 kts 274°
2026-05-06 23:08 33.94194 -118.51236 3356 ft 251 kts 270°
2026-05-06 23:09 33.94054 -118.53415 4032 ft 271 kts 266°
2026-05-06 23:09 33.93858 -118.55710 4861 ft 283 kts 266°
2026-05-06 23:09 33.93667 -118.58052 5869 ft 287 kts 267°
2026-05-06 23:09 33.93476 -118.60456 6792 ft 295 kts 268°
2026-05-06 23:10 33.93284 -118.62901 7649 ft 299 kts 268°
2026-05-06 23:10 33.93087 -118.65402 8223 ft 305 kts 267°
2026-05-06 23:10 33.92886 -118.67995 8785 ft 311 kts 267°
2026-05-06 23:10 33.92687 -118.70563 9346 ft 316 kts 267°
2026-05-06 23:11 33.92480 -118.73227 9926 ft 320 kts 268°
2026-05-06 23:11 33.92270 -118.75919 10293 ft 327 kts 268°
2026-05-06 23:11 33.92053 -118.78718 10436 ft 343 kts 268°
2026-05-06 23:11 33.91826 -118.81630 10539 ft 360 kts 267°
2026-05-06 23:12 33.91736 -118.84695 10576 ft 375 kts 275°
2026-05-06 23:12 33.91827 -118.87931 10683 ft 392 kts 275°
2026-05-06 23:12 33.91929 -118.91231 11013 ft 403 kts 275°
2026-05-06 23:12 33.92032 -118.94653 11633 ft 408 kts 275°
2026-05-06 23:13 33.92175 -118.98042 12243 ft 408 kts 279°
2026-05-06 23:13 33.92732 -119.01376 12746 ft 409 kts 290°
2026-05-06 23:13 33.93797 -119.04570 13274 ft 409 kts 301°
2026-05-06 23:13 33.95235 -119.07510 13876 ft 409 kts 305°
2026-05-06 23:14 33.96739 -119.10414 14466 ft 412 kts 306°
2026-05-06 23:14 33.98257 -119.13345 14988 ft 416 kts 306°
2026-05-06 23:14 33.99809 -119.16270 15517 ft 418 kts 310°
2026-05-06 23:14 34.01693 -119.18928 16002 ft 418 kts 320°
2026-05-06 23:15 34.03937 -119.21169 16486 ft 418 kts 327°
2026-05-06 23:15 34.06315 -119.23222 17032 ft 420 kts 328°
2026-05-06 23:15 34.08704 -119.25270 17553 ft 423 kts 328°
2026-05-06 23:15 34.11109 -119.27335 18053 ft 427 kts 328°
2026-05-06 23:16 34.13533 -119.29417 18570 ft 429 kts 328°
2026-05-06 23:16 34.15989 -119.31530 19097 ft 432 kts 328°
2026-05-06 23:16 34.18427 -119.33630 19582 ft 435 kts 328°
2026-05-06 23:16 34.20903 -119.35764 20066 ft 439 kts 328°
2026-05-06 23:17 34.23420 -119.37936 20574 ft 441 kts 328°
2026-05-06 23:17 34.25916 -119.40092 21040 ft 444 kts 328°
2026-05-06 23:17 34.28413 -119.42249 21504 ft 447 kts 328°
2026-05-06 23:17 34.30969 -119.44460 21960 ft 449 kts 328°
2026-05-06 23:18 34.33423 -119.46809 22342 ft 456 kts 321°
2026-05-06 23:18 34.35635 -119.49667 22759 ft 463 kts 312°
2026-05-06 23:18 34.37463 -119.52914 23149 ft 471 kts 303°
2026-05-06 23:18 34.38870 -119.56503 23528 ft 479 kts 295°
2026-05-06 23:19 34.39810 -119.60397 23916 ft 487 kts 285°
2026-05-06 23:19 34.40229 -119.64466 24276 ft 495 kts 276°
2026-05-06 23:19 34.40125 -119.68680 24634 ft 502 kts 268°
2026-05-06 23:19 34.39823 -119.72877 24990 ft 506 kts 268°
2026-05-06 23:20 34.39505 -119.77130 25383 ft 508 kts 268°
2026-05-06 23:20 34.39187 -119.81410 25782 ft 510 kts 268°
2026-05-06 23:20 34.38874 -119.85667 26173 ft 513 kts 268°
2026-05-06 23:20 34.38557 -119.89991 26533 ft 516 kts 268°
2026-05-06 23:21 34.38241 -119.94298 26924 ft 518 kts 268°
2026-05-06 23:21 34.37922 -119.98651 27303 ft 520 kts 268°
2026-05-06 23:21 34.37603 -120.03008 27690 ft 522 kts 268°
2026-05-06 23:21 34.37280 -120.07402 28047 ft 522 kts 268°
2026-05-06 23:22 34.36954 -120.11828 28065 ft 522 kts 268°
2026-05-06 23:22 34.36309 -120.20514 28069 ft 520 kts 268°
2026-05-06 23:23 34.35659 -120.29210 28059 ft 519 kts 268°
2026-05-06 23:23 34.35005 -120.37896 28067 ft 520 kts 268°
2026-05-06 23:24 34.33902 -120.46555 28056 ft 523 kts 257°
2026-05-06 23:24 34.31122 -120.54707 28072 ft 527 kts 247°
2026-05-06 23:25 34.27978 -120.62702 28073 ft 526 kts 247°
2026-05-06 23:25 34.24809 -120.70718 28074 ft 528 kts 246°
2026-05-06 23:26 34.21602 -120.78805 28084 ft 527 kts 246°
2026-05-06 23:26 34.18414 -120.86821 28093 ft 527 kts 246°
2026-05-06 23:27 34.15205 -120.94866 28092 ft 528 kts 246°
2026-05-06 23:27 34.12000 -121.02882 28095 ft 526 kts 246°
2026-05-06 23:28 34.08783 -121.10907 28097 ft 527 kts 246°
2026-05-06 23:28 34.05595 -121.18842 28102 ft 528 kts 246°
2026-05-06 23:29 34.02384 -121.26817 28113 ft 527 kts 246°
2026-05-06 23:29 33.99180 -121.34754 28119 ft 526 kts 246°
2026-05-06 23:30 33.95957 -121.42718 28117 ft 527 kts 246°
2026-05-06 23:30 33.92702 -121.50742 28132 ft 525 kts 246°
2026-05-06 23:31 33.89495 -121.58631 28136 ft 526 kts 246°
2026-05-06 23:31 33.86264 -121.66560 28120 ft 526 kts 245°
2026-05-06 23:32 33.83042 -121.74450 28134 ft 525 kts 245°
2026-05-06 23:32 33.79810 -121.82346 28142 ft 526 kts 245°
2026-05-06 23:33 33.76574 -121.90231 28138 ft 525 kts 245°
2026-05-06 23:33 33.73346 -121.98079 28151 ft 524 kts 245°
2026-05-06 23:34 33.70101 -122.05952 28151 ft 525 kts 245°
2026-05-06 23:34 33.66867 -122.13778 28153 ft 523 kts 245°
2026-05-06 23:35 33.63633 -122.21587 28156 ft 524 kts 245°
2026-05-06 23:35 33.60379 -122.29428 28160 ft 523 kts 245°
2026-05-06 23:36 33.57130 -122.37240 28158 ft 525 kts 245°
2026-05-06 23:36 33.53858 -122.45085 28163 ft 522 kts 245°
2026-05-06 23:37 33.50614 -122.52849 28162 ft 523 kts 245°
2026-05-06 23:37 33.47382 -122.60657 28157 ft 521 kts 248°
2026-05-06 23:38 33.44698 -122.68745 28161 ft 521 kts 250°
2026-05-06 23:38 33.42060 -122.76763 28166 ft 521 kts 250°
2026-05-06 23:39 33.39378 -122.84821 28166 ft 521 kts 250°
2026-05-06 23:39 33.36672 -122.92886 28170 ft 520 kts 249°
2026-05-06 23:40 33.33973 -123.00887 28174 ft 520 kts 249°
2026-05-06 23:40 33.31266 -123.08881 28176 ft 520 kts 249°
2026-05-06 23:41 33.28539 -123.16904 28176 ft 519 kts 249°
2026-05-06 23:41 33.25818 -123.24887 28181 ft 520 kts 249°
2026-05-06 23:42 33.23086 -123.32879 28179 ft 519 kts 249°
2026-05-06 23:42 33.20346 -123.40874 28183 ft 519 kts 249°
2026-05-06 23:43 33.17607 -123.48846 28188 ft 519 kts 249°
2026-05-06 23:43 33.14881 -123.56758 28186 ft 518 kts 249°
2026-05-06 23:44 33.12145 -123.64681 28188 ft 518 kts 249°
2026-05-06 23:44 33.09392 -123.72636 28185 ft 518 kts 249°
2026-05-06 23:45 33.06634 -123.80582 28191 ft 518 kts 249°
2026-05-06 23:45 33.03893 -123.88460 28193 ft 518 kts 249°
2026-05-06 23:46 33.01120 -123.96412 28193 ft 517 kts 249°
2026-05-06 23:46 32.98364 -124.04295 28195 ft 516 kts 248°
2026-05-06 23:47 32.95578 -124.12244 28197 ft 517 kts 249°
2026-05-06 23:47 32.92807 -124.20134 28201 ft 517 kts 249°
2026-05-06 23:48 32.90028 -124.28024 28203 ft 518 kts 249°
2026-05-06 23:48 32.87243 -124.35914 28199 ft 518 kts 249°
2026-05-06 23:49 32.84444 -124.43825 28194 ft 517 kts 249°
2026-05-06 23:49 32.81652 -124.51696 28195 ft 515 kts 248°
2026-05-06 23:50 32.78862 -124.59543 28193 ft 517 kts 249°
2026-05-06 23:50 32.74650 -124.71356 28188 ft 517 kts 248°
2026-05-06 23:51 32.71844 -124.79201 28186 ft 518 kts 248°
2026-05-06 23:51 32.69028 -124.87056 28191 ft 517 kts 248°
2026-05-06 23:52 32.66206 -124.94908 28193 ft 516 kts 248°
2026-05-06 23:52 32.63390 -125.02725 28193 ft 516 kts 248°
2026-05-06 23:53 32.60572 -125.10531 28194 ft 515 kts 248°
2026-05-06 23:53 32.57725 -125.18397 28195 ft 516 kts 248°
2026-05-06 23:54 32.54889 -125.26213 28192 ft 516 kts 248°
2026-05-06 23:54 32.52067 -125.33975 28195 ft 515 kts 248°
2026-05-06 23:55 32.49226 -125.41772 28194 ft 515 kts 248°
2026-05-06 23:55 32.46381 -125.49559 28196 ft 514 kts 248°
2026-05-06 23:56 32.43442 -125.57297 28198 ft 515 kts 245°
2026-05-06 23:56 32.40259 -125.64863 28194 ft 514 kts 245°
2026-05-06 23:57 32.37058 -125.72478 28192 ft 515 kts 245°
2026-05-06 23:57 32.33867 -125.80078 28193 ft 514 kts 245°
2026-05-06 23:58 32.30696 -125.87630 28194 ft 513 kts 245°
2026-05-06 23:58 32.27532 -125.95159 28194 ft 513 kts 245°
2026-05-06 23:59 32.24366 -126.02679 28194 ft 512 kts 245°
2026-05-06 23:59 32.21198 -126.10192 28198 ft 513 kts 245°
2026-05-07 00:00 32.18002 -126.17759 28199 ft 513 kts 245°
2026-05-07 00:00 32.14817 -126.25281 28200 ft 512 kts 245°
2026-05-07 00:01 32.11622 -126.32812 28203 ft 511 kts 245°
2026-05-07 00:01 32.08437 -126.40305 28208 ft 511 kts 245°
2026-05-07 00:02 32.05259 -126.47765 28215 ft 511 kts 245°
2026-05-07 00:02 32.02065 -126.55246 28220 ft 511 kts 245°
2026-05-07 00:03 31.98852 -126.62758 28225 ft 510 kts 245°
2026-05-07 00:03 31.95647 -126.70235 28232 ft 511 kts 245°
2026-05-07 00:04 31.92447 -126.77686 28230 ft 510 kts 245°
2026-05-07 00:04 31.89229 -126.85164 28229 ft 510 kts 245°
2026-05-07 00:05 31.86039 -126.92559 28228 ft 510 kts 245°
2026-05-07 00:05 31.82811 -127.00030 28229 ft 510 kts 245°
2026-05-07 00:06 31.79590 -127.07468 28229 ft 510 kts 245°
2026-05-07 00:06 31.76368 -127.14892 28224 ft 511 kts 245°
2026-05-07 00:07 31.73148 -127.22298 28219 ft 511 kts 245°
2026-05-07 00:07 31.69901 -127.29752 28219 ft 512 kts 245°
2026-05-07 00:08 31.66664 -127.37167 28220 ft 512 kts 245°
2026-05-07 00:08 31.63405 -127.44614 28218 ft 512 kts 245°
2026-05-07 00:09 31.60167 -127.52003 28221 ft 511 kts 245°
2026-05-07 00:09 31.56906 -127.59425 28220 ft 511 kts 245°
2026-05-07 00:10 31.53641 -127.66844 28222 ft 512 kts 244°
2026-05-07 00:10 31.50402 -127.74188 28222 ft 512 kts 244°
2026-05-07 00:11 31.47118 -127.81622 28221 ft 512 kts 244°
2026-05-07 00:11 31.43840 -127.89024 28219 ft 512 kts 244°
2026-05-07 00:12 31.40556 -127.96426 28216 ft 511 kts 244°
2026-05-07 00:12 31.37279 -128.03795 28217 ft 511 kts 244°
2026-05-07 00:13 31.34002 -128.11151 28214 ft 511 kts 244°
2026-05-07 00:13 31.30708 -128.18532 28217 ft 511 kts 244°
2026-05-07 00:14 31.27423 -128.25879 28222 ft 510 kts 244°
2026-05-07 00:14 31.24106 -128.33281 28222 ft 511 kts 244°
2026-05-07 00:15 31.20816 -128.40608 28221 ft 511 kts 244°
2026-05-07 00:15 31.17496 -128.47990 28226 ft 511 kts 244°
2026-05-07 00:16 31.14197 -128.55309 28229 ft 511 kts 244°
2026-05-07 00:16 31.10882 -128.62650 28228 ft 511 kts 244°
2026-05-07 00:17 31.07582 -128.69942 28232 ft 510 kts 244°
2026-05-07 00:17 31.04260 -128.77269 28231 ft 510 kts 244°
2026-05-07 00:18 31.00945 -128.84569 28235 ft 510 kts 244°
2026-05-07 00:18 30.97612 -128.91891 28243 ft 511 kts 244°
2026-05-07 00:19 30.94289 -128.99179 28254 ft 510 kts 244°
2026-05-07 00:19 30.90948 -129.06493 28246 ft 510 kts 244°
2026-05-07 00:20 30.87632 -129.13736 28237 ft 510 kts 244°
2026-05-07 00:20 30.84288 -129.21028 28239 ft 509 kts 244°
2026-05-07 00:21 30.80953 -129.28288 28236 ft 509 kts 244°
2026-05-07 00:21 30.77616 -129.35535 28240 ft 509 kts 244°
2026-05-07 00:22 30.74280 -129.42769 28239 ft 509 kts 244°
2026-05-07 00:22 30.70923 -129.50034 28243 ft 509 kts 244°
2026-05-07 00:23 30.67581 -129.57250 28242 ft 509 kts 244°
2026-05-07 00:23 30.64212 -129.64510 28245 ft 509 kts 244°
2026-05-07 00:24 30.60870 -129.71699 28242 ft 509 kts 243°
2026-05-07 00:24 30.57505 -129.78928 28242 ft 508 kts 243°
2026-05-07 00:25 30.54136 -129.86147 28244 ft 508 kts 243°
2026-05-07 00:25 30.50794 -129.93289 28239 ft 508 kts 242°
2026-05-07 00:26 30.46859 -130.00139 28508 ft 516 kts 237°
2026-05-07 00:26 30.44802 -130.03545 29129 ft 512 kts 237°
2026-05-07 00:26 30.42782 -130.06880 29828 ft 506 kts 237°
2026-05-07 00:27 30.40752 -130.10229 30211 ft 507 kts 237°
2026-05-07 00:27 30.38729 -130.13564 30240 ft 508 kts 237°
2026-05-07 00:27 30.34676 -130.20230 30245 ft 506 kts 237°
2026-05-07 00:28 30.30603 -130.26914 30244 ft 505 kts 237°
2026-05-07 00:28 30.26564 -130.33531 30242 ft 505 kts 237°
2026-05-07 00:29 30.22507 -130.40167 30243 ft 505 kts 237°
2026-05-07 00:30 30.14394 -130.53403 30238 ft 505 kts 238°
2026-05-07 00:30 30.10318 -130.60036 30237 ft 505 kts 238°
2026-05-07 00:31 30.06255 -130.66638 30239 ft 506 kts 237°
2026-05-07 00:31 30.02188 -130.73235 30237 ft 507 kts 237°
2026-05-07 00:32 29.98089 -130.79871 30236 ft 507 kts 237°
2026-05-07 00:32 29.93991 -130.86494 30238 ft 506 kts 238°
2026-05-07 00:33 29.89907 -130.93085 30240 ft 505 kts 238°
2026-05-07 00:33 29.85831 -130.99652 30228 ft 505 kts 238°
2026-05-07 00:34 29.81745 -131.06226 30225 ft 504 kts 238°
2026-05-07 00:34 29.77661 -131.12787 30229 ft 504 kts 238°
2026-05-07 00:35 29.73593 -131.19310 30235 ft 504 kts 238°
2026-05-07 00:35 29.69501 -131.25861 30233 ft 504 kts 238°
2026-05-07 00:36 29.65390 -131.32433 30232 ft 504 kts 238°
2026-05-07 00:36 29.61321 -131.38925 30229 ft 503 kts 238°
2026-05-07 00:37 29.57217 -131.45465 30233 ft 503 kts 238°
2026-05-07 00:37 29.53119 -131.51984 30231 ft 502 kts 238°
2026-05-07 00:38 29.49031 -131.58476 30234 ft 501 kts 238°
2026-05-07 00:38 29.44951 -131.64946 30233 ft 502 kts 238°
2026-05-07 00:39 29.40871 -131.71405 30236 ft 502 kts 237°
2026-05-07 00:39 29.36775 -131.77881 30235 ft 502 kts 237°
2026-05-07 00:40 29.32683 -131.84340 30237 ft 502 kts 237°
2026-05-07 00:40 29.28583 -131.90801 30236 ft 501 kts 237°
2026-05-07 00:41 29.24464 -131.97281 30236 ft 501 kts 237°
2026-05-07 00:41 29.20361 -132.03726 30238 ft 501 kts 237°
2026-05-07 00:42 29.16278 -132.10130 30240 ft 500 kts 237°
2026-05-07 00:42 29.12178 -132.16553 30238 ft 500 kts 237°
2026-05-07 00:43 29.08060 -132.22990 30241 ft 501 kts 237°
2026-05-07 00:43 29.03937 -132.29428 30236 ft 501 kts 237°
2026-05-07 00:44 28.99825 -132.35840 30232 ft 501 kts 237°
2026-05-07 00:44 28.95709 -132.42244 30232 ft 500 kts 237°
2026-05-07 00:45 28.91592 -132.48644 30232 ft 499 kts 237°
2026-05-07 00:45 28.87487 -132.55013 30227 ft 499 kts 237°
2026-05-07 00:46 28.83387 -132.61366 30227 ft 499 kts 237°
2026-05-07 00:46 28.79249 -132.67767 30231 ft 499 kts 236°
2026-05-07 00:47 28.75141 -132.74112 30228 ft 500 kts 236°
2026-05-07 00:47 28.71000 -132.80499 30230 ft 499 kts 236°
2026-05-07 00:48 28.66885 -132.86836 30228 ft 499 kts 236°
2026-05-07 00:48 28.62748 -132.93198 30226 ft 499 kts 236°
2026-05-07 00:49 28.58619 -132.99538 30226 ft 498 kts 236°
2026-05-07 00:49 28.54472 -133.05896 30225 ft 498 kts 236°
2026-05-07 00:50 28.50364 -133.12184 30225 ft 498 kts 236°
2026-05-07 00:50 28.46244 -133.18481 30228 ft 498 kts 236°
2026-05-07 00:51 28.42079 -133.24838 30230 ft 498 kts 236°
2026-05-07 00:51 28.37940 -133.31146 30231 ft 498 kts 236°
2026-05-07 00:52 28.33783 -133.37471 30234 ft 498 kts 236°
2026-05-07 00:52 28.29635 -133.43774 30234 ft 498 kts 236°
2026-05-07 00:53 28.25517 -133.50023 30234 ft 498 kts 236°
2026-05-07 00:53 28.21372 -133.56343 30234 ft 497 kts 237°
2026-05-07 00:54 28.17306 -133.62653 30234 ft 497 kts 237°
2026-05-07 00:54 28.13229 -133.68967 30237 ft 498 kts 236°
2026-05-07 00:55 28.09130 -133.75301 30238 ft 498 kts 236°
2026-05-07 00:55 28.05057 -133.81584 30238 ft 498 kts 236°
2026-05-07 00:56 28.00943 -133.87920 30237 ft 498 kts 236°
2026-05-07 00:56 27.96864 -133.94192 30229 ft 498 kts 236°
2026-05-07 00:57 27.92743 -134.00520 30215 ft 497 kts 236°
2026-05-07 00:57 27.88656 -134.06787 30208 ft 498 kts 236°
2026-05-07 00:58 27.84584 -134.13022 30209 ft 498 kts 236°
2026-05-07 00:58 27.80478 -134.19298 30210 ft 497 kts 236°
2026-05-07 00:59 27.74327 -134.28683 30209 ft 497 kts 236°
2026-05-07 01:00 27.70188 -134.34988 30212 ft 496 kts 236°
2026-05-07 01:00 27.66071 -134.41249 30211 ft 496 kts 236°
2026-05-07 01:01 27.61975 -134.47472 30210 ft 496 kts 236°
2026-05-07 01:01 27.57853 -134.53722 30211 ft 496 kts 236°
2026-05-07 01:02 27.53735 -134.59959 30210 ft 496 kts 236°
2026-05-07 01:02 27.49616 -134.66188 30213 ft 495 kts 235°
2026-05-07 01:03 27.45474 -134.72443 30216 ft 495 kts 235°
2026-05-07 01:03 27.41352 -134.78659 30215 ft 495 kts 236°
2026-05-07 01:04 27.37224 -134.84876 30214 ft 494 kts 236°
2026-05-07 01:04 27.33053 -134.91148 30215 ft 494 kts 236°
2026-05-07 01:05 27.28936 -134.97330 30214 ft 494 kts 236°
2026-05-07 01:05 27.24807 -135.03522 30214 ft 494 kts 235°
2026-05-07 01:06 27.20664 -135.09726 30215 ft 495 kts 236°
2026-05-07 01:06 27.16479 -135.15984 30214 ft 495 kts 235°
2026-05-07 01:07 27.12363 -135.22130 30214 ft 495 kts 235°
2026-05-07 01:07 27.08207 -135.28326 30214 ft 494 kts 236°
2026-05-07 01:08 27.04054 -135.34509 30213 ft 493 kts 235°
2026-05-07 01:08 26.99904 -135.40681 30214 ft 493 kts 236°
2026-05-07 01:09 26.95783 -135.46800 30213 ft 494 kts 236°
2026-05-07 01:09 26.91634 -135.52953 30211 ft 494 kts 235°
2026-05-07 01:10 26.87464 -135.59128 30208 ft 495 kts 236°
2026-05-07 01:10 26.83293 -135.65297 30207 ft 495 kts 235°
2026-05-07 01:11 26.79135 -135.71439 30211 ft 495 kts 235°
2026-05-07 01:11 26.74978 -135.77568 30207 ft 495 kts 235°
2026-05-07 01:12 26.70795 -135.83728 30202 ft 494 kts 235°
2026-05-07 01:12 26.66638 -135.89842 30200 ft 494 kts 235°
2026-05-07 01:13 26.62464 -135.95973 30200 ft 494 kts 235°
2026-05-07 01:13 26.58320 -136.02051 30196 ft 494 kts 235°
2026-05-07 01:14 26.54143 -136.08170 30192 ft 495 kts 235°
2026-05-07 01:14 26.49963 -136.14282 30190 ft 495 kts 235°
2026-05-07 01:15 26.45736 -136.20372 30190 ft 495 kts 234°
2026-05-07 01:15 26.41463 -136.26384 30187 ft 495 kts 234°
2026-05-07 01:16 26.37177 -136.32411 30189 ft 495 kts 234°
2026-05-07 01:16 26.32885 -136.38444 30185 ft 495 kts 234°
2026-05-07 01:17 26.28586 -136.44481 30179 ft 494 kts 234°
2026-05-07 01:17 26.24308 -136.50482 30183 ft 495 kts 234°
2026-05-07 01:18 26.20003 -136.56514 30185 ft 495 kts 234°
2026-05-07 01:18 26.15720 -136.62508 30180 ft 496 kts 234°
2026-05-07 01:19 26.11425 -136.68512 30183 ft 496 kts 234°
2026-05-07 01:19 26.07095 -136.74554 30185 ft 496 kts 234°
2026-05-07 01:20 26.02766 -136.80589 30181 ft 497 kts 234°
2026-05-07 01:20 25.98469 -136.86571 30185 ft 496 kts 234°
2026-05-07 01:21 25.94137 -136.92595 30193 ft 496 kts 234°
2026-05-07 01:21 25.89829 -136.98576 30193 ft 496 kts 234°
2026-05-07 01:22 25.85499 -137.04582 30184 ft 497 kts 234°
2026-05-07 01:22 25.81185 -137.10556 30185 ft 496 kts 234°
2026-05-07 01:23 25.76840 -137.16565 30183 ft 497 kts 234°
2026-05-07 01:23 25.72521 -137.22533 30181 ft 497 kts 234°
2026-05-07 01:24 25.68188 -137.28510 30176 ft 497 kts 234°
2026-05-07 01:24 25.63860 -137.34471 30178 ft 497 kts 234°
2026-05-07 01:25 25.59485 -137.40492 30174 ft 497 kts 234°
2026-05-07 01:25 25.55168 -137.46426 30172 ft 497 kts 234°
2026-05-07 01:26 25.50829 -137.52382 30168 ft 497 kts 234°
2026-05-07 01:26 25.46457 -137.58375 30163 ft 497 kts 234°
2026-05-07 01:27 25.42108 -137.64328 30162 ft 498 kts 234°
2026-05-07 01:27 25.37754 -137.70282 30165 ft 498 kts 233°
2026-05-07 01:28 25.33389 -137.76242 30168 ft 497 kts 233°
2026-05-07 01:28 25.29047 -137.82164 30162 ft 498 kts 233°
2026-05-07 01:29 25.24673 -137.88123 30163 ft 498 kts 233°
2026-05-07 01:29 25.20307 -137.94061 30162 ft 498 kts 234°
2026-05-07 01:30 25.15942 -137.99991 30165 ft 497 kts 234°
2026-05-07 01:30 25.11577 -138.05914 30156 ft 498 kts 233°
2026-05-07 01:31 25.07196 -138.11852 30160 ft 497 kts 233°
2026-05-07 01:31 25.02826 -138.17766 30156 ft 498 kts 234°
2026-05-07 01:32 24.98436 -138.23702 30154 ft 499 kts 233°
2026-05-07 01:32 24.94050 -138.29622 30153 ft 498 kts 233°
2026-05-07 01:33 24.89670 -138.35529 30152 ft 498 kts 233°
2026-05-07 01:33 24.85276 -138.41446 30147 ft 498 kts 233°
2026-05-07 01:34 24.80873 -138.47369 30147 ft 497 kts 234°
2026-05-07 01:34 24.76504 -138.53238 30145 ft 497 kts 233°
2026-05-07 01:35 24.72125 -138.59116 30146 ft 498 kts 233°
2026-05-07 01:35 24.67729 -138.65006 30144 ft 497 kts 233°
2026-05-07 01:36 24.63338 -138.70883 30146 ft 497 kts 233°
2026-05-07 01:36 24.58954 -138.76744 30147 ft 498 kts 233°
2026-05-07 01:37 24.54551 -138.82622 30146 ft 497 kts 233°
2026-05-07 01:37 24.50143 -138.88500 30144 ft 498 kts 233°
2026-05-07 01:38 24.45737 -138.94369 30143 ft 496 kts 233°
2026-05-07 01:38 24.41337 -139.00223 30145 ft 497 kts 233°
2026-05-07 01:39 24.36963 -139.06035 30145 ft 497 kts 233°
2026-05-07 01:39 24.32537 -139.11911 30145 ft 498 kts 233°
2026-05-07 01:40 24.28128 -139.17755 30145 ft 497 kts 233°
2026-05-07 01:40 24.23742 -139.23561 30140 ft 496 kts 233°
2026-05-07 01:41 24.19303 -139.29433 30142 ft 498 kts 233°
2026-05-07 01:41 24.14893 -139.35257 30138 ft 495 kts 233°
2026-05-07 01:42 24.10470 -139.41092 30137 ft 496 kts 233°
2026-05-07 01:42 24.06081 -139.46875 30132 ft 496 kts 233°
2026-05-07 01:43 24.01650 -139.52707 30135 ft 496 kts 233°
2026-05-07 01:43 23.97250 -139.58490 30131 ft 496 kts 233°
2026-05-07 01:44 23.92843 -139.64278 30131 ft 496 kts 233°
2026-05-07 01:44 23.88398 -139.70108 30129 ft 496 kts 233°
2026-05-07 01:45 23.83982 -139.75893 30129 ft 495 kts 232°
2026-05-07 01:45 23.79569 -139.81667 30129 ft 495 kts 233°
2026-05-07 01:46 23.75152 -139.87439 30125 ft 494 kts 233°
2026-05-07 01:46 23.70757 -139.93176 30123 ft 494 kts 233°
2026-05-07 01:47 23.66309 -139.98976 30120 ft 494 kts 233°
2026-05-07 01:47 23.61898 -140.04719 30124 ft 494 kts 233°
2026-05-07 01:48 23.57481 -140.10466 30122 ft 493 kts 233°
2026-05-07 01:48 23.53077 -140.16188 30121 ft 493 kts 233°
2026-05-07 01:49 23.48666 -140.21913 30118 ft 493 kts 232°
2026-05-07 01:49 23.44260 -140.27626 30117 ft 493 kts 233°
2026-05-07 01:50 23.39832 -140.33365 30115 ft 492 kts 233°
2026-05-07 01:50 23.35434 -140.39061 30114 ft 492 kts 233°
2026-05-07 01:51 23.31030 -140.44756 30113 ft 491 kts 233°
2026-05-07 01:51 23.26628 -140.50442 30112 ft 490 kts 233°
2026-05-07 01:52 23.22236 -140.56110 30112 ft 491 kts 233°
2026-05-07 01:52 23.17833 -140.61784 30111 ft 490 kts 233°
2026-05-07 01:53 23.13431 -140.67453 30116 ft 491 kts 232°
2026-05-07 01:53 23.09002 -140.73148 30117 ft 491 kts 232°
2026-05-07 01:54 23.04601 -140.78801 30112 ft 489 kts 232°
2026-05-07 01:54 23.00208 -140.84439 30112 ft 489 kts 232°
2026-05-07 01:55 22.95777 -140.90118 30112 ft 490 kts 232°
2026-05-07 01:55 22.91379 -140.95750 30113 ft 490 kts 232°
2026-05-07 01:56 22.86972 -141.01386 30112 ft 490 kts 232°
2026-05-07 01:56 22.82534 -141.07056 30111 ft 489 kts 232°
2026-05-07 01:57 22.78139 -141.12663 30109 ft 488 kts 232°
2026-05-07 01:57 22.73737 -141.18275 30109 ft 488 kts 232°
2026-05-07 01:58 22.69361 -141.23848 30109 ft 488 kts 232°
2026-05-07 01:58 22.64918 -141.29498 30110 ft 488 kts 232°
2026-05-07 01:59 22.60518 -141.35091 30109 ft 487 kts 232°
2026-05-07 01:59 22.56114 -141.40680 30109 ft 488 kts 232°
2026-05-07 02:00 22.51696 -141.46281 30106 ft 488 kts 232°
2026-05-07 02:00 22.47309 -141.51837 30108 ft 487 kts 232°
2026-05-07 02:01 22.42903 -141.57411 30106 ft 486 kts 232°
2026-05-07 02:01 22.38495 -141.62979 30107 ft 486 kts 232°
2026-05-07 02:02 22.34114 -141.68510 30111 ft 485 kts 232°
2026-05-07 02:02 22.29720 -141.74051 30113 ft 483 kts 232°
2026-05-07 02:03 22.25305 -141.79614 30113 ft 487 kts 232°
2026-05-07 02:03 22.20906 -141.85173 30110 ft 485 kts 232°
2026-05-07 02:04 22.16508 -141.90736 30111 ft 484 kts 232°
2026-05-07 02:04 22.12122 -141.96278 30110 ft 484 kts 232°
2026-05-07 02:05 22.07755 -142.01790 30111 ft 485 kts 232°
2026-05-07 02:05 22.03375 -142.07312 30112 ft 483 kts 232°
2026-05-07 02:06 21.99013 -142.12804 30110 ft 482 kts 232°
2026-05-07 02:06 21.94645 -142.18298 30108 ft 482 kts 232°
2026-05-07 02:07 21.90259 -142.23810 30107 ft 484 kts 232°
2026-05-07 02:07 21.83697 -142.32045 30103 ft 483 kts 232°
2026-05-07 02:08 21.79312 -142.37541 30102 ft 484 kts 232°
2026-05-07 02:08 21.74913 -142.43048 30096 ft 481 kts 232°
2026-05-07 02:09 21.70532 -142.48529 30094 ft 485 kts 232°
2026-05-07 02:09 21.66157 -142.53993 30099 ft 480 kts 232°
2026-05-07 02:10 21.61779 -142.59459 30098 ft 484 kts 232°
2026-05-07 02:10 21.57405 -142.64912 30091 ft 483 kts 232°
2026-05-07 02:11 21.53015 -142.70381 30095 ft 483 kts 232°